Location: Lecco
(45.8566°N, 9.3977°E)
Time: 04:57:36
(UTC+02:00)

Transit 4A - Pass Details

Date: 23 August 2020
Orbit: 863 x 982 km, 66.8° (Epoch: 23 September)

Event Time Altitude Azimuth Distance (km) Brightness Sun altitude
Rises 07:39:29 0° 206° (SSW) 3,491 10.6 10.6°
Reaches altitude 10° 07:41:56 10° 205° (SSW) 2,571 10.0 11.0°
Maximum altitude 07:47:54 78° 120° (ESE) 946 8.4 12.0°
Drops below altitude 10° 07:54:07 10° 35° (NE) 2,671 10.9 13.1°
Sets 07:56:42 0° 34° (NE) 3,637 11.5 13.6°
